• In Belgium
  • List of Countries
  • For 7 days
  • Water Temperature
  • Satellite Maps
  • Weather Map
  • Weather Widgets
  • user-avatar
    Login

    Hourly Weather Oostkamp

    Today, 21 January, Sunday

    Time Temperature Precipitation Wind Pressure Humidity
    00:00 +1°C° 0 mm 4 mps 755 mmHg 89%
    01:00 +1°C° 0 mm 4 mps 756 mmHg 88%
    02:00 +1°C° 0 mm 4 mps 757 mmHg 87%
    03:00 +1°C° 0 mm 4 mps 757 mmHg 87%
    04:00 +1°C° 0 mm 4 mps 758 mmHg 85%
    05:00 +2°C° 0 mm 3 mps 759 mmHg 84%
    06:00 +2°C° 0 mm 3 mps 759 mmHg 82%
    07:00 +3°C° 0 mm 2 mps 760 mmHg 82%
    08:00 +4°C° 0 mm 2 mps 760 mmHg 81%
    09:00 +5°C° 0 mm 1 mps 761 mmHg 81%
    10:00 +4°C° 0 mm 2 mps 761 mmHg 79%
    11:00 +4°C° 0 mm 3 mps 761 mmHg 78%
    12:00 +4°C° 0 mm 3 mps 761 mmHg 76%
    13:00 +4°C° 0.5 mm 4 mps 760 mmHg 78%
    14:00 +4°C° 0.5 mm 4 mps 760 mmHg 80%
    15:00 +2°C° 0.5 mm 5 mps 759 mmHg 82%
    16:00 +2°C° 0.9 mm 6 mps 758 mmHg 83%
    17:00 +2°C° 0.9 mm 7 mps 758 mmHg 84%
    18:00 +1°C° 0.9 mm 8 mps 757 mmHg 85%
    19:00 +1°C° 1.4 mm 8 mps 756 mmHg 87%
    20:00 +2°C° 1.4 mm 8 mps 755 mmHg 89%
    21:00 +2°C° 1.4 mm 8 mps 754 mmHg 91%
    22:00 +4°C° 0.5 mm 7 mps 754 mmHg 92%
    23:00 +5°C° 0.5 mm 7 mps 754 mmHg 93%

    Tomorrow, 22 January, Monday

    Time Temperature Precipitation Wind Pressure Humidity
    00:00 +8°C° 0.5 mm 6 mps 753 mmHg 94%
    01:00 +8°C° 0.1 mm 6 mps 753 mmHg 94%
    02:00 +9°C° 0.1 mm 7 mps 753 mmHg 93%
    03:00 +9°C° 0.1 mm 7 mps 754 mmHg 93%
    04:00 +9°C° 0 mm 7 mps 754 mmHg 92%
    05:00 +8°C° 0 mm 7 mps 755 mmHg 92%
    06:00 +8°C° 0 mm 7 mps 755 mmHg 91%
    07:00 +8°C° 0 mm 7 mps 756 mmHg 90%
    08:00 +7°C° 0 mm 6 mps 756 mmHg 90%
    09:00 +7°C° 0 mm 5 mps 757 mmHg 89%
    10:00 +7°C° 0 mm 5 mps 758 mmHg 86%
    11:00 +7°C° 0 mm 6 mps 758 mmHg 82%
    12:00 +8°C° 0 mm 6 mps 759 mmHg 79%
    13:00 +7°C° 0 mm 5 mps 759 mmHg 78%
    14:00 +7°C° 0 mm 5 mps 760 mmHg 77%
    15:00 +7°C° 0 mm 5 mps 760 mmHg 76%
    16:00 +6°C° 0 mm 5 mps 761 mmHg 81%
    17:00 +5°C° 0 mm 4 mps 761 mmHg 85%
    18:00 +4°C° 0 mm 4 mps 762 mmHg 90%
    19:00 +4°C° 0 mm 3 mps 763 mmHg 90%
    20:00 +4°C° 0 mm 3 mps 763 mmHg 91%
    21:00 +4°C° 0 mm 3 mps 764 mmHg 92%
    22:00 +3°C° 0 mm 3 mps 764 mmHg 92%
    23:00 +3°C° 0 mm 3 mps 764 mmHg 93%

    Day after tomorrow, 23 January, Tuesday

    Time Temperature Precipitation Wind Pressure Humidity
    00:00 +3°C° 0 mm 3 mps 764 mmHg 93%
    01:00 +3°C° 0 mm 3 mps 765 mmHg 93%
    02:00 +3°C° 0 mm 4 mps 765 mmHg 93%
    03:00 +3°C° 0 mm 4 mps 765 mmHg 93%
    04:00 +4°C° 0 mm 4 mps 765 mmHg 93%
    05:00 +3°C° 0 mm 5 mps 765 mmHg 93%
    06:00 +3°C° 0 mm 5 mps 764 mmHg 93%
    07:00 +5°C° 0 mm 5 mps 764 mmHg 92%
    08:00 +4°C° 0 mm 6 mps 764 mmHg 92%
    09:00 +4°C° 0 mm 6 mps 764 mmHg 91%
    10:00 +5°C° 0 mm 6 mps 764 mmHg 89%
    11:00 +7°C° 0 mm 6 mps 764 mmHg 86%
    12:00 +8°C° 0 mm 7 mps 763 mmHg 84%
    13:00 +8°C° 0.1 mm 7 mps 763 mmHg 86%
    14:00 +8°C° 0.1 mm 7 mps 762 mmHg 88%
    15:00 +8°C° 0.1 mm 7 mps 762 mmHg 90%
    16:00 +9°C° 0.2 mm 7 mps 762 mmHg 91%
    17:00 +9°C° 0.2 mm 7 mps 762 mmHg 93%
    18:00 +9°C° 0.2 mm 7 mps 762 mmHg 94%
    19:00 +10°C° 0 mm 7 mps 762 mmHg 94%
    20:00 +10°C° 0 mm 7 mps 762 mmHg 94%
    21:00 +10°C° 0 mm 7 mps 762 mmHg 94%
    22:00 +10°C° 0.1 mm 7 mps 762 mmHg 93%
    23:00 +11°C° 0.1 mm 8 mps 761 mmHg 91%

    24 January, Wednesday

    Time Temperature Precipitation Wind Pressure Humidity
    00:00 +11°C° 0.1 mm 8 mps 761 mmHg 90%
    01:00 +11°C° 0.1 mm 8 mps 761 mmHg 89%
    02:00 +10°C° 0.1 mm 8 mps 761 mmHg 88%
    03:00 +10°C° 0.1 mm 8 mps 760 mmHg 88%
    04:00 +10°C° 0 mm 9 mps 760 mmHg 88%
    05:00 +10°C° 0 mm 9 mps 760 mmHg 88%
    06:00 +10°C° 0 mm 9 mps 759 mmHg 88%
    07:00 +9°C° 0 mm 10 mps 759 mmHg 87%
    08:00 +9°C° 0 mm 10 mps 759 mmHg 86%
    09:00 +11°C° 0 mm 10 mps 759 mmHg 84%
    10:00 +11°C° 0 mm 10 mps 758 mmHg 84%
    11:00 +11°C° 0 mm 10 mps 758 mmHg 83%
    12:00 +11°C° 0 mm 10 mps 758 mmHg 82%
    13:00 +11°C° 0.1 mm 11 mps 758 mmHg 82%
    14:00 +11°C° 0.1 mm 11 mps 757 mmHg 82%
    15:00 +11°C° 0.1 mm 11 mps 757 mmHg 82%
    16:00 +11°C° 0.4 mm 10 mps 757 mmHg 82%
    17:00 +11°C° 0.4 mm 10 mps 756 mmHg 82%
    18:00 +11°C° 0.4 mm 10 mps 756 mmHg 82%
    19:00 +11°C° 0.9 mm 9 mps 756 mmHg 84%
    20:00 +11°C° 0.9 mm 8 mps 756 mmHg 86%
    21:00 +10°C° 0.9 mm 7 mps 756 mmHg 88%
    22:00 +10°C° 1.1 mm 6 mps 756 mmHg 89%
    23:00 +10°C° 1.1 mm 5 mps 756 mmHg 90%

    25 January, Thursday

    Time Temperature Precipitation Wind Pressure Humidity
    00:00 +10°C° 1.1 mm 5 mps 755 mmHg 91%
    01:00 +9°C° 1.1 mm 5 mps 755 mmHg 91%
    02:00 +9°C° 1.1 mm 5 mps 755 mmHg 91%
    03:00 +8°C° 1.1 mm 5 mps 755 mmHg 91%
    04:00 +8°C° 0.1 mm 5 mps 755 mmHg 88%
    05:00 +8°C° 0.1 mm 6 mps 756 mmHg 85%
    06:00 +6°C° 0.1 mm 7 mps 756 mmHg 82%
    07:00 +6°C° 0 mm 7 mps 756 mmHg 81%
    08:00 +6°C° 0 mm 7 mps 757 mmHg 80%
    09:00 +6°C° 0 mm 7 mps 757 mmHg 79%
    10:00 +6°C° 0 mm 7 mps 757 mmHg 76%
    11:00 +8°C° 0 mm 7 mps 758 mmHg 73%
    12:00 +8°C° 0 mm 7 mps 758 mmHg 71%
    13:00 +8°C° 0 mm 6 mps 758 mmHg 71%
    14:00 +8°C° 0 mm 6 mps 758 mmHg 72%
    15:00 +8°C° 0 mm 6 mps 758 mmHg 73%
    16:00 +7°C° 0 mm 6 mps 758 mmHg 76%
    17:00 +6°C° 0 mm 5 mps 758 mmHg 79%
    18:00 +6°C° 0 mm 5 mps 758 mmHg 82%
    19:00 +5°C° 0 mm 5 mps 759 mmHg 83%
    20:00 +5°C° 0 mm 5 mps 759 mmHg 84%
    21:00 +5°C° 0 mm 5 mps 759 mmHg 85%
    22:00 +3°C° 0 mm 5 mps 759 mmHg 87%
    23:00 +3°C° 0 mm 5 mps 759 mmHg 88%

    26 January, Friday

    Time Temperature Precipitation Wind Pressure Humidity
    00:00 +3°C° 0 mm 5 mps 759 mmHg 89%
    01:00 +3°C° 0 mm 5 mps 759 mmHg 89%
    02:00 +3°C° 0 mm 4 mps 759 mmHg 90%
    03:00 +3°C° 0 mm 4 mps 760 mmHg 91%
    04:00 +3°C° 0 mm 4 mps 760 mmHg 91%
    05:00 +3°C° 0 mm 4 mps 760 mmHg 91%
    06:00 +3°C° 0 mm 4 mps 761 mmHg 91%
    07:00 +3°C° 0 mm 4 mps 761 mmHg 90%
    08:00 +3°C° 0 mm 4 mps 762 mmHg 89%
    09:00 +3°C° 0 mm 4 mps 762 mmHg 88%
    10:00 +5°C° 0 mm 4 mps 763 mmHg 85%
    11:00 +6°C° 0 mm 4 mps 763 mmHg 81%
    12:00 +8°C° 0 mm 3 mps 763 mmHg 77%
    13:00 +7°C° 0 mm 4 mps 764 mmHg 78%
    14:00 +7°C° 0 mm 4 mps 764 mmHg 79%
    15:00 +7°C° 0 mm 4 mps 765 mmHg 79%
    16:00 +6°C° 0 mm 4 mps 765 mmHg 82%
    17:00 +5°C° 0 mm 4 mps 766 mmHg 85%
    18:00 +4°C° 0 mm 4 mps 767 mmHg 87%
    19:00 +3°C° 0 mm 5 mps 768 mmHg 88%
    20:00 +3°C° 0 mm 5 mps 768 mmHg 89%
    21:00 +3°C° 0 mm 5 mps 769 mmHg 90%
    22:00 +3°C° 0 mm 6 mps 769 mmHg 90%
    23:00 +3°C° 0 mm 6 mps 770 mmHg 89%
    Show more